Wind_Speed
17 16 15 15 14 14 14 13 13 13 12 12 11 10 10 10 9 9 9 9 9 9 9 9 8 8 8 8 8 8 8 8 8 8 8 8 8 8 7 7 7 7 7
18 18 17 16 16 15 15 15 15 14 14 13 12 12 11 11 11 11 10 10 10 10 10 10 10 10 9 9 9 9 9 9 9 9 9 10 9 9 9 8 8 8 8
20 19 18 18 17 17 17 17 16 16 15 14 14 13 13 13 12 12 12 12 12 12 11 11 11 11 11 11 11 11 10 10 11 11 11 11 11 11 11 10 10 10 10
22 21 20 19 19 19 19 18 18 17 17 16 16 15 15 15 14 14 14 14 14 14 14 13 13 13 13 13 13 13 12 12 12 12 12 12 12 12 12 12 12 12 12
23 23 22 21 21 21 21 20 20 19 19 19 18 18 17 17 17 16 16 16 16 16 16 15 15 14 15 15 15 15 15 14 14 14 14 14 14 14 14 14 14 14 14
25 24 23 23 23 23 22 22 22 22 21 21 21 20 20 20 19 19 19 19 19 18 18 18 18 17 17 17 17 17 17 17 16 16 16 16 16 16 16 16 16 16 15
26 26 25 24 24 24 24 23 24 24 24 24 23 23 22 22 22 21 21 21 21 21 21 21 20 20 20 20 19 19 19 19 18 18 18 18 17 17 17 17 17 17 17
27 27 26 25 25 25 25 25 25 25 25 25 25 25 25 25 24 24 24 23 23 23 23 23 23 22 22 22 22 22 22 21 21 21 20 20 20 20 20 19 19 19 19
28 28 27 27 26 26 26 25 26 26 26 27 27 27 26 26 26 26 26 26 25 25 25 25 25 25 25 25 24 24 24 24 24 23 22 22 22 22 22 22 21 21 21
30 29 28 28 28 27 27 27 27 27 27 27 27 27 27 27 27 27 27 27 27 27 27 27 27 27 27 27 27 27 26 26 26 25 25 25 25 25 24 24 23 23 23
31 30 30 30 30 29 29 28 28 28 28 28 28 28 28 28 28 28 28 29 29 29 29 29 29 29 29 29 29 29 28 28 28 28 27 27 27 27 27 26 25 25 25
32 31 31 31 31 31 31 31 31 31 31 30 30 30 30 30 30 30 30 30 31 31 32 32 32 32 32 32 32 32 31 30 30 30 30 29 29 29 29 29 28 27 27
32 32 32 32 32 33 33 33 33 33 33 33 32 32 32 32 32 32 32 32 32 32 33 33 34 34 35 35 35 35 34 34 33 33 32 32 32 31 31 31 31 30 29
34 33 33 33 33 33 33 33 34 34 34 34 34 34 34 33 33 34 34 34 34 34 34 34 35 36 36 36 37 37 37 37 36 36 35 35 35 35 34 34 33 33 32
34 34 34 33 33 33 33 34 34 34 34 34 34 35 35 35 35 35 35 35 35 35 35 36 36 37 37 38 38 38 38 39 39 39 38 37 37 37 37 37 36 36 36
34 33 33 33 33 33 33 34 34 33 33 33 34 34 35 36 35 36 36 36 36 36 36 37 37 38 38 39 39 39 40 40 40 40 40 40 40 40 39 39 39 38 38
32 32 32 33 33 33 33 33 34 34 34 34 34 35 35 36 36 37 37 38 38 38 38 38 38 38 38 39 40 41 41 41 41 41 41 41 41 42 42 41 41 41 41
32 32 32 32 32 33 34 34 34 34 34 34 35 35 35 36 36 37 38 39 39 39 39 39 39 39 39 39 39 40 41 41 41 41 42 42 42 43 44 44 44 43 43
32 32 33 33 33 34 35 35 35 35 35 35 36 36 37 38 38 38 38 39 40 40 40 40 40 40 40 40 40 40 40 41 42 42 42 42 42 43 44 44 44 45 45
33 33 33 34 35 35 35 35 36 36 36 36 36 37 38 39 39 39 39 40 40 41 41 41 41 40 40 40 41 41 41 41 42 42 43 43 43 43 44 44 45 45 46
34 34 35 35 35 35 35 35 36 36 37 37 36 37 37 38 38 38 38 38 39 39 40 40 40 40 41 41 42 42 42 42 43 43 44 44 44 44 44 44 44 44 45
34 34 35 35 36 36 35 35 36 36 37 37 37 36 36 37 37 37 37 37 38 38 39 40 40 40 41 41 42 43 43 44 44 44 45 45 45 46 46 45 44 45 46
35 35 35 35 35 35 35 36 36 36 36 36 36 37 38 38 37 37 37 37 38 39 39 39 40 41 41 42 43 44 44 45 45 45 45 46 47 46 46 46 46 47 47
35 35 35 35 35 35 35 36 36 36 36 36 37 37 37 37 37 37 37 38 39 39 40 40 40 41 42 42 43 44 45 45 46 46 46 46 46 46 46 47 47 46 47
35 35 35 35 35 36 36 36 36 36 36 36 37 37 37 37 38 38 38 39 39 39 39 39 40 41 42 42 43 44 45 46 47 47 46 46 46 47 48 48 49 49 49
35 35 34 34 35 35 36 36 37 37 37 37 37 36 36 37 37 38 38 38 38 38 39 39 40 41 42 42 43 44 44 45 46 47 48 47 47 47 48 49 50 50 50
Wind_Direction
241 243 244 245 246 246 248 250 253 254 254 254 254 255 255 254 256 258 259 258 258 257 257 259 261 263 263 264 265 267 266 263 263 264 267 270 274 277 281 284 287 288 293
243 245 245 246 248 249 249 251 253 255 256 256 255 256 258 257 257 258 261 261 261 261 260 259 261 263 266 268 269 270 270 267 265 267 269 271 273 275 277 280 283 286 288
245 245 247 248 250 251 251 252 253 255 257 258 259 259 260 260 261 261 262 263 263 265 266 264 264 263 265 268 271 272 272 271 270 269 271 272 272 273 275 278 280 283 285
246 246 248 249 250 252 252 254 254 256 257 258 260 261 262 262 263 264 264 265 266 267 269 269 268 267 266 267 269 271 273 275 274 273 273 274 274 274 275 276 278 280 282
246 248 248 250 251 253 255 255 256 258 259 260 260 261 263 263 263 264 265 266 267 267 268 269 270 269 268 268 270 270 271 273 275 275 275 275 276 275 275 277 279 280 280
246 248 250 251 252 254 255 256 258 259 260 261 261 262 264 265 265 265 265 266 267 267 267 268 269 269 269 270 271 272 271 272 274 275 275 275 276 276 276 278 280 280 280
246 248 250 252 252 254 256 258 258 259 260 260 261 263 264 266 266 266 266 266 267 268 268 268 268 268 268 269 271 272 273 273 274 275 276 275 275 276 276 278 280 280 279
246 248 250 252 253 254 256 258 259 259 260 261 262 263 264 265 266 267 267 267 267 267 268 268 268 268 269 270 270 271 272 273 274 275 276 275 275 275 276 276 278 280 279
247 249 250 252 254 255 256 258 259 260 261 262 263 264 264 265 266 267 267 267 267 267 267 268 268 268 268 269 270 271 271 272 273 274 275 274 274 275 276 276 276 278 278
248 250 251 252 254 255 257 258 259 261 262 263 263 264 264 265 266 266 266 266 266 266 266 267 268 268 268 269 270 271 271 272 272 273 273 274 274 274 275 276 276 276 276
249 250 251 253 255 256 258 259 260 261 262 263 264 264 265 266 266 267 267 267 267 267 266 267 267 268 268 269 270 271 271 271 271 272 272 273 274 274 274 274 274 275 275
249 251 253 254 255 257 259 260 261 262 263 263 264 265 266 267 267 268 268 268 268 267 267 267 268 268 268 269 270 270 271 271 271 271 272 272 272 273 274 273 273 274 274
250 252 253 255 257 259 260 262 263 263 264 265 265 266 267 267 267 268 268 268 268 268 268 269 269 269 269 269 269 269 270 270 271 271 272 272 272 272 272 273 273 273 274
250 252 254 256 259 260 261 262 263 264 265 266 266 266 267 268 269 269 269 268 268 269 269 269 269 270 270 270 269 269 270 270 271 271 271 271 271 271 271 271 272 273 273
251 253 255 257 259 261 261 262 263 265 265 266 266 267 268 269 269 270 271 270 270 270 269 269 269 269 270 270 270 270 270 270 270 270 271 271 271 271 271 271 271 271 272
251 252 255 257 259 261 262 264 265 265 266 267 268 269 269 269 269 269 270 271 271 271 271 270 270 270 270 271 271 271 270 269 269 269 269 270 270 270 270 271 271 271 271
250 253 256 258 259 260 262 263 265 266 266 267 268 269 270 269 269 270 270 271 271 272 271 270 270 270 272 272 271 271 271 270 270 270 270 269 269 269 269 270 270 271 270
251 253 256 259 260 262 264 265 265 266 267 268 269 270 270 270 272 271 272 272 272 272 272 271 270 271 272 272 272 271 271 270 270 270 270 270 270 270 269 270 270 270 270
251 254 258 260 262 264 265 266 267 269 270 270 271 271 271 271 272 273 274 274 273 273 272 272 272 271 271 272 272 272 271 271 270 269 270 270 270 270 270 269 269 269 270
253 255 258 260 261 263 266 268 270 271 271 271 272 274 273 273 273 273 274 275 275 274 273 272 271 271 271 271 271 271 270 272 270 270 270 270 270 271 271 270 270 270 269
254 258 261 262 263 265 267 267 269 271 272 274 275 276 275 275 274 275 276 276 276 275 274 274 273 272 271 271 271 271 270 271 272 271 270 270 270 271 271 270 270 270 270
256 260 263 263 264 265 267 268 269 271 273 273 274 275 276 276 276 278 277 277 276 276 275 275 273 273 272 272 272 271 270 271 272 272 270 269 270 270 270 270 270 269 270
257 260 264 266 265 266 268 269 270 271 272 273 274 274 276 277 277 278 278 278 278 278 277 276 275 273 272 273 273 273 272 271 271 271 271 271 270 270 269 271 272 271 270
259 260 263 266 266 267 267 269 270 271 272 273 274 275 276 277 278 278 279 279 279 278 278 277 276 274 274 274 274 274 274 273 272 271 271 271 270 269 270 270 270 272 272
261 261 263 266 267 268 267 268 270 271 272 274 275 276 277 278 279 279 279 280 280 280 279 278 277 276 275 275 275 275 275 275 274 273 270 270 271 271 270 270 270 271 272
261 262 264 265 266 267 268 269 270 271 273 274 276 276 277 279 280 281 280 280 280 280 279 278 278 277 276 276 276 276 276 276 276 274 272 270 271 272 272 271 270 272 273
Height
5865 5866 5867 5869 5870 5871 5872 5873 5873 5874 5875 5875 5876 5876 5877 5878 5878 5878 5878 5879 5879 5879 5879 5879 5880 5880 5880 5880 5880 5879 5879 5879 5879 5879 5879 5879 5879 5879 5879 5878 5878 5878 5878
5862 5864 5865 5866 5867 5869 5870 5871 5871 5872 5873 5873 5874 5875 5875 5876 5876 5877 5877 5877 5877 5878 5878 5878 5878 5878 5878 5878 5878 5878 5878 5878 5878 5878 5878 5878 5878 5878 5877 5877 5877 5877 5876
5859 5861 5862 5863 5865 5866 5867 5868 5869 5870 5871 5871 5872 5872 5873 5874 5874 5875 5875 5875 5876 5876 5876 5876 5876 5877 5877 5877 5877 5877 5877 5877 5876 5876 5876 5876 5876 5876 5876 5876 5876 5875 5875
5856 5857 5859 5860 5862 5863 5864 5865 5866 5867 5868 5869 5869 5870 5871 5871 5872 5872 5873 5873 5873 5874 5874 5874 5874 5875 5875 5875 5875 5875 5875 5875 5875 5875 5875 5874 5874 5874 5874 5874 5874 5873 5873
5852 5853 5855 5857 5858 5860 5861 5862 5863 5864 5865 5866 5866 5867 5868 5868 5869 5869 5870 5870 5871 5871 5871 5872 5872 5872 5872 5872 5872 5872 5873 5873 5873 5872 5872 5872 5872 5872 5872 5872 5871 5871 5871
5848 5849 5851 5853 5854 5856 5857 5858 5859 5860 5861 5862 5863 5864 5864 5865 5865 5866 5866 5867 5867 5868 5868 5868 5869 5869 5869 5869 5869 5870 5870 5870 5870 5870 5870 5870 5870 5869 5869 5869 5869 5868 5868
5843 5845 5847 5849 5850 5852 5853 5854 5855 5856 5857 5858 5859 5859 5860 5861 5861 5862 5862 5863 5863 5864 5864 5865 5865 5865 5866 5866 5866 5866 5866 5866 5867 5867 5867 5867 5867 5866 5866 5866 5866 5866 5865
5839 5841 5843 5844 5846 5847 5848 5849 5851 5852 5852 5853 5854 5855 5855 5856 5857 5857 5858 5858 5859 5859 5860 5860 5860 5861 5861 5862 5862 5862 5862 5863 5863 5863 5863 5863 5863 5863 5863 5863 5862 5862 5862
5834 5836 5838 5839 5841 5842 5843 5845 5846 5846 5847 5848 5849 5850 5850 5851 5852 5852 5853 5853 5854 5854 5855 5855 5856 5856 5857 5857 5857 5858 5858 5858 5858 5859 5859 5859 5859 5859 5859 5859 5859 5858 5858
5828 5831 5833 5834 5836 5837 5838 5839 5840 5841 5842 5843 5843 5844 5845 5845 5846 5847 5847 5848 5848 5849 5849 5850 5850 5851 5851 5852 5852 5852 5853 5853 5853 5854 5854 5854 5854 5854 5854 5854 5854 5854 5854
5823 5825 5827 5829 5830 5832 5833 5834 5835 5836 5836 5837 5838 5838 5839 5839 5840 5841 5841 5842 5842 5843 5843 5844 5844 5845 5845 5846 5846 5847 5847 5848 5848 5848 5849 5849 5849 5849 5849 5849 5849 5849 5849
5817 5819 5821 5823 5824 5826 5827 5828 5829 5830 5830 5831 5832 5832 5833 5833 5834 5834 5835 5835 5836 5836 5837 5837 5837 5838 5839 5839 5840 5840 5841 5841 5842 5842 5843 5843 5843 5843 5843 5843 5843 5844 5844
5811 5813 5815 5817 5818 5820 5821 5822 5822 5823 5824 5825 5825 5826 5826 5827 5827 5828 5828 5828 5829 5829 5830 5830 5830 5831 5831 5832 5833 5833 5834 5834 5835 5835 5836 5836 5837 5837 5837 5837 5837 5837 5837
5804 5806 5809 5810 5812 5813 5814 5815 5816 5817 5817 5818 5818 5819 5819 5820 5820 5821 5821 5821 5821 5822 5822 5822 5823 5823 5823 5824 5824 5825 5826 5826 5827 5828 5828 5829 5829 5830 5830 5830 5830 5830 5831
5798 5800 5802 5803 5805 5806 5807 5808 5809 5809 5810 5810 5811 5811 5812 5812 5813 5813 5813 5813 5813 5814 5814 5814 5814 5815 5815 5815 5816 5816 5817 5818 5818 5819 5820 5821 5821 5821 5822 5822 5823 5823 5823
5791 5793 5795 5796 5798 5799 5800 5800 5801 5802 5802 5803 5803 5803 5804 5804 5804 5805 5805 5805 5805 5805 5805 5805 5805 5806 5806 5806 5807 5807 5808 5808 5809 5810 5811 5811 5812 5812 5813 5814 5814 5815 5815
5785 5787 5788 5790 5791 5791 5792 5793 5793 5794 5795 5795 5795 5795 5795 5795 5795 5796 5796 5796 5796 5796 5796 5796 5796 5797 5797 5797 5798 5798 5798 5799 5800 5800 5801 5802 5802 5803 5804 5804 5804 5805 5805
5778 5781 5782 5783 5784 5784 5785 5785 5786 5786 5787 5787 5787 5787 5787 5787 5787 5787 5788 5787 5787 5787 5787 5787 5787 5787 5788 5788 5788 5788 5789 5789 5790 5790 5791 5791 5792 5793 5794 5794 5795 5795 5795
5772 5774 5775 5776 5777 5777 5778 5778 5778 5778 5779 5779 5779 5779 5779 5779 5778 5779 5778 5778 5777 5777 5777 5777 5778 5778 5778 5778 5779 5779 5779 5779 5779 5780 5780 5781 5781 5782 5783 5784 5784 5785 5785
5765 5767 5768 5769 5770 5770 5771 5771 5771 5771 5771 5771 5770 5770 5770 5770 5769 5769 5768 5768 5767 5767 5767 5767 5767 5768 5768 5768 5768 5769 5769 5769 5769 5769 5770 5770 5771 5771 5772 5773 5774 5774 5774
5759 5760 5761 5762 5762 5763 5763 5763 5763 5763 5763 5762 5762 5762 5761 5761 5760 5759 5759 5759 5758 5758 5757 5757 5757 5757 5758 5757 5758 5758 5759 5758 5759 5759 5759 5760 5760 5761 5761 5762 5763 5763 5763
5752 5753 5754 5754 5755 5755 5755 5756 5756 5756 5755 5754 5754 5753 5753 5752 5751 5750 5750 5749 5749 5748 5747 5747 5747 5747 5747 5747 5747 5747 5748 5749 5748 5748 5748 5749 5749 5750 5750 5750 5751 5752 5752
5744 5745 5746 5747 5747 5747 5747 5748 5748 5748 5747 5746 5746 5745 5744 5743 5742 5741 5741 5740 5739 5738 5738 5737 5736 5736 5736 5736 5735 5735 5736 5737 5737 5738 5737 5737 5738 5738 5738 5739 5739 5740 5740
5736 5738 5739 5739 5739 5740 5739 5740 5740 5739 5739 5738 5738 5737 5735 5734 5733 5732 5732 5731 5730 5729 5728 5727 5726 5725 5725 5725 5725 5724 5724 5724 5725 5726 5726 5726 5726 5726 5726 5727 5727 5727 5727
5729 5730 5731 5732 5732 5732 5732 5732 5731 5731 5731 5730 5729 5728 5727 5726 5724 5723 5722 5721 5720 5719 5717 5716 5716 5715 5714 5714 5713 5713 5712 5712 5711 5712 5713 5714 5713 5714 5714 5714 5715 5715 5715
5722 5722 5723 5724 5724 5724 5724 5724 5723 5723 5722 5722 5721 5720 5718 5717 5716 5714 5713 5712 5710 5709 5708 5706 5705 5704 5704 5703 5702 5701 5701 5700 5699 5699 5700 5701 5701 5701 5701 5701 5702 5702 5702